SDM907 UNNT-UNEE

Flight info

Callsign SDM907
Flight time N/A
Altitude 25000
Route OGATI1K OGATI OGATI4G
Aircraft A20N/M-SDE2E3FGHIRWXY/LB1

Departure

Time 2026-04-28 09:25
Airport Novosibirsk Tolmachevo Airport (UNNT)

Arrival

Time N/A
Airport Alexei Leonov Kemerovo International Airport (UNEE)
Time Latitude Longitude Altitude Speed Heading
2026-04-28 09:02 55.01023 82.66675 375 ft 0 kts 170°
2026-04-28 09:16 55.01036 82.66671 375 ft 4 kts 170°
2026-04-28 09:16 55.01053 82.66665 375 ft 2 kts 158°
2026-04-28 09:16 55.01070 82.66646 375 ft 3 kts 128°
2026-04-28 09:17 55.01078 82.66620 375 ft 2 kts 88°
2026-04-28 09:17 55.01074 82.66593 375 ft 3 kts 57°
2026-04-28 09:17 55.01065 82.66568 375 ft 0 kts 64°
2026-04-28 09:22 55.01066 82.66573 375 ft 2 kts 65°
2026-04-28 09:22 55.01077 82.66618 375 ft 6 kts 66°
2026-04-28 09:22 55.01118 82.66655 375 ft 8 kts 359°
2026-04-28 09:22 55.01187 82.66640 375 ft 12 kts 352°
2026-04-28 09:23 55.01260 82.66622 375 ft 0 kts 352°
2026-04-28 09:23 55.01263 82.66621 375 ft 2 kts 352°
2026-04-28 09:23 55.01288 82.66614 375 ft 5 kts 352°
2026-04-28 09:23 55.01336 82.66602 375 ft 8 kts 352°
2026-04-28 09:24 55.01375 82.66544 376 ft 8 kts 280°
2026-04-28 09:24 55.01374 82.66515 376 ft 0 kts 263°
2026-04-28 09:24 55.01370 82.66459 377 ft 27 kts 262°
2026-04-28 09:24 55.01293 82.65573 375 ft 118 kts 261°
2026-04-28 09:25 55.01124 82.63765 526 ft 172 kts 262°
2026-04-28 09:25 55.00914 82.61638 1384 ft 185 kts 263°
2026-04-28 09:25 55.00694 82.59347 2201 ft 201 kts 263°
2026-04-28 09:25 55.00476 82.56862 2340 ft 209 kts 264°
2026-04-28 09:26 55.00261 82.54357 2452 ft 208 kts 263°
2026-04-28 09:26 55.00300 82.51889 2566 ft 205 kts 289°
2026-04-28 09:26 55.01063 82.49823 2663 ft 205 kts 320°
2026-04-28 09:26 55.02339 82.48810 2776 ft 203 kts 352°
2026-04-28 09:27 55.05277 82.49396 2982 ft 224 kts
2026-04-28 09:27 55.06839 82.49809 2982 ft 226 kts
2026-04-28 09:27 55.08382 82.50216 2998 ft 224 kts
2026-04-28 09:28 55.09940 82.50620 2999 ft 230 kts
2026-04-28 09:28 55.11473 82.51335 2997 ft 228 kts 28°
2026-04-28 09:28 55.12591 82.53266 2998 ft 232 kts 60°
2026-04-28 09:28 55.13045 82.55965 2994 ft 238 kts 78°
2026-04-28 09:29 55.13334 82.58826 2999 ft 237 kts 78°
2026-04-28 09:29 55.13612 82.61622 2975 ft 236 kts 78°
2026-04-28 09:29 55.13618 82.64507 2990 ft 244 kts 99°
2026-04-28 09:29 55.13281 82.67538 3313 ft 264 kts 100°
2026-04-28 09:30 55.12902 82.70712 4362 ft 267 kts 101°
2026-04-28 09:30 55.12633 82.72871 5143 ft 268 kts 101°
2026-04-28 09:30 55.12227 82.76066 6218 ft 272 kts 102°
2026-04-28 09:30 55.11814 82.79267 7291 ft 275 kts 101°
2026-04-28 09:31 55.11386 82.82548 8328 ft 279 kts 101°
2026-04-28 09:31 55.10947 82.85900 8979 ft 288 kts 100°
2026-04-28 09:31 55.10499 82.89317 9235 ft 289 kts 100°
2026-04-28 09:31 55.10046 82.92751 10069 ft 290 kts 99°
2026-04-28 09:32 55.09586 82.96242 10817 ft 305 kts 99°
2026-04-28 09:32 55.09095 82.99990 11205 ft 328 kts 99°
2026-04-28 09:32 55.08571 83.03963 11822 ft 340 kts 99°
2026-04-28 09:32 55.08031 83.08007 12740 ft 344 kts 99°
2026-04-28 09:33 55.07479 83.12110 13629 ft 348 kts 98°
2026-04-28 09:33 55.06923 83.16251 14527 ft 351 kts 98°
2026-04-28 09:33 55.06362 83.20414 15327 ft 355 kts 97°
2026-04-28 09:33 55.05796 83.24628 16113 ft 359 kts 97°
2026-04-28 09:34 55.05223 83.28875 16914 ft 362 kts 96°
2026-04-28 09:34 55.04642 83.33176 17673 ft 366 kts 96°
2026-04-28 09:34 55.04015 83.37521 18416 ft 371 kts 96°
2026-04-28 09:34 55.03448 83.41915 19097 ft 374 kts 94°
2026-04-28 09:35 55.03119 83.46369 19783 ft 365 kts 81°
2026-04-28 09:35 55.03537 83.50640 20425 ft 354 kts 65°
2026-04-28 09:35 55.04416 83.54630 21080 ft 353 kts 59°
2026-04-28 09:35 55.05380 83.58588 21736 ft 357 kts 60°
2026-04-28 09:36 55.06290 83.62568 22373 ft 362 kts 61°
2026-04-28 09:36 55.07169 83.66792 23012 ft 368 kts 64°
2026-04-28 09:36 55.08020 83.71008 23656 ft 369 kts 61°
2026-04-28 09:36 55.08945 83.75199 24218 ft 372 kts 60°
2026-04-28 09:37 55.09883 83.79450 24689 ft 377 kts 60°
2026-04-28 09:37 55.10810 83.83764 25143 ft 382 kts 61°
2026-04-28 09:37 55.11717 83.88081 25579 ft 387 kts 62°
2026-04-28 09:37 55.12636 83.92528 26048 ft 391 kts 62°
2026-04-28 09:38 55.13557 83.97019 26505 ft 395 kts 62°
2026-04-28 09:38 55.14486 84.01562 26956 ft 399 kts 62°
2026-04-28 09:38 55.15421 84.06153 27409 ft 402 kts 62°
2026-04-28 09:38 55.16364 84.10794 27839 ft 406 kts 62°
2026-04-28 09:39 55.17310 84.15467 28261 ft 410 kts 62°
2026-04-28 09:39 55.18263 84.20190 28671 ft 413 kts 62°
2026-04-28 09:39 55.19223 84.24952 29067 ft 417 kts 62°
2026-04-28 09:39 55.20193 84.29770 29464 ft 420 kts 62°
2026-04-28 09:40 55.21164 84.34615 29844 ft 424 kts 62°
2026-04-28 09:40 55.22142 84.39505 30212 ft 427 kts 62°
2026-04-28 09:40 55.23124 84.44437 30555 ft 430 kts 62°
2026-04-28 09:40 55.24113 84.49405 30855 ft 435 kts 63°
2026-04-28 09:41 55.25115 84.54451 31089 ft 440 kts 63°
2026-04-28 09:41 55.26117 84.59526 31381 ft 443 kts 64°
2026-04-28 09:41 55.27128 84.64653 31703 ft 446 kts 64°
2026-04-28 09:41 55.28141 84.69809 32055 ft 447 kts 64°
2026-04-28 09:42 55.29155 84.74977 32402 ft 449 kts 64°
2026-04-28 09:42 55.30168 84.80157 32765 ft 450 kts 65°
2026-04-28 09:42 55.31184 84.85359 33113 ft 451 kts 65°
2026-04-28 09:42 55.32202 84.90586 33441 ft 452 kts 65°
2026-04-28 09:43 55.33219 84.95825 33782 ft 454 kts 65°
2026-04-28 09:43 55.34238 85.01089 34120 ft 455 kts 65°
2026-04-28 09:43 55.35244 85.06288 34418 ft 457 kts 66°